SMR226 UZTT-UTDD

Flight info

Callsign SMR226
Flight time 0h 33m
Altitude 24000
Route BAMGU2A BAMGU Z753 ASBUG A353 SX PUGU1E
Aircraft B738/M-SDGIJ1LRWY/SB1

Departure

Time 2026-05-04 18:45
Airport Tashkent International Airport (UZTT)

Arrival

Time 2026-05-04 19:18
Airport Dushanbe International Airport (UTDD)
Time Latitude Longitude Altitude Speed Heading
2026-05-04 18:25 41.26141 69.26759 1423 ft 0 kts 327°
2026-05-04 18:37 41.26135 69.26763 1423 ft 2 kts 327°
2026-05-04 18:37 41.26122 69.26774 1423 ft 2 kts 327°
2026-05-04 18:37 41.26109 69.26784 1423 ft 2 kts 327°
2026-05-04 18:37 41.26097 69.26795 1423 ft 2 kts 327°
2026-05-04 18:38 41.26084 69.26806 1423 ft 2 kts 327°
2026-05-04 18:38 41.26071 69.26817 1423 ft 2 kts 327°
2026-05-04 18:38 41.26059 69.26827 1423 ft 2 kts 327°
2026-05-04 18:38 41.26046 69.26838 1423 ft 2 kts 310°
2026-05-04 18:39 41.26040 69.26856 1423 ft 2 kts 272°
2026-05-04 18:39 41.26043 69.26875 1423 ft 2 kts 239°
2026-05-04 18:39 41.26050 69.26893 1423 ft 2 kts 249°
2026-05-04 18:39 41.26054 69.26906 1423 ft 0 kts 246°
2026-05-04 18:40 41.26054 69.26907 1423 ft 0 kts 246°
2026-05-04 18:41 41.26053 69.26903 1423 ft 3 kts 246°
2026-05-04 18:41 41.26034 69.26846 1423 ft 9 kts 247°
2026-05-04 18:41 41.26000 69.26739 1423 ft 14 kts 246°
2026-05-04 18:41 41.25963 69.26623 1423 ft 13 kts 246°
2026-05-04 18:42 41.25925 69.26511 1422 ft 14 kts 238°
2026-05-04 18:42 41.25844 69.26411 1422 ft 16 kts 218°
2026-05-04 18:42 41.25759 69.26312 1422 ft 16 kts 234°
2026-05-04 18:42 41.25701 69.26156 1422 ft 21 kts 245°
2026-05-04 18:43 41.25640 69.25978 1422 ft 20 kts 245°
2026-05-04 18:43 41.25606 69.25863 1422 ft 11 kts 262°
2026-05-04 18:43 41.25624 69.25777 1422 ft 8 kts 282°
2026-05-04 18:43 41.25596 69.25737 1422 ft 5 kts 157°
2026-05-04 18:44 41.25588 69.25768 1422 ft 0 kts 81°
2026-05-04 18:44 41.25653 69.26356 1423 ft 96 kts 81°
2026-05-04 18:44 41.25780 69.27525 1423 ft 156 kts 81°
2026-05-04 18:45 41.25936 69.29089 1797 ft 174 kts 82°
2026-05-04 18:45 41.26103 69.30647 2576 ft 175 kts 80°
2026-05-04 18:45 41.26291 69.32272 3226 ft 186 kts 81°
2026-05-04 18:45 41.26485 69.34038 3751 ft 207 kts 81°
2026-05-04 18:46 41.26692 69.36081 4121 ft 241 kts 82°
2026-05-04 18:46 41.26919 69.38300 5054 ft 247 kts 82°
2026-05-04 18:46 41.27182 69.40607 5655 ft 267 kts 82°
2026-05-04 18:46 41.27136 69.43108 6472 ft 277 kts 108°
2026-05-04 18:47 41.26150 69.45217 7418 ft 278 kts 139°
2026-05-04 18:47 41.24471 69.46474 8347 ft 281 kts 165°
2026-05-04 18:47 41.22545 69.46754 9278 ft 284 kts 183°
2026-05-04 18:47 41.20631 69.46306 10236 ft 285 kts 195°
2026-05-04 18:48 41.18676 69.45548 10877 ft 300 kts 196°
2026-05-04 18:48 41.16646 69.44764 11475 ft 315 kts 195°
2026-05-04 18:48 41.14481 69.43953 12051 ft 331 kts 195°
2026-05-04 18:48 41.12226 69.43124 12620 ft 346 kts 195°
2026-05-04 18:49 41.09861 69.42261 13400 ft 354 kts 195°
2026-05-04 18:49 41.07512 69.41406 14295 ft 357 kts 195°
2026-05-04 18:49 41.05081 69.40521 15098 ft 363 kts 195°
2026-05-04 18:49 41.02645 69.39634 15896 ft 368 kts 195°
2026-05-04 18:50 41.00210 69.38627 16683 ft 373 kts 198°
2026-05-04 18:50 40.97751 69.37511 17388 ft 379 kts 197°
2026-05-04 18:50 40.95194 69.36492 18087 ft 385 kts 194°
2026-05-04 18:50 40.92601 69.35628 18724 ft 392 kts 193°
2026-05-04 18:51 40.89928 69.34788 19419 ft 398 kts 193°
2026-05-04 18:51 40.87205 69.33899 20145 ft 402 kts 194°
2026-05-04 18:51 40.84508 69.32976 20818 ft 407 kts 194°
2026-05-04 18:51 40.81746 69.32004 21574 ft 409 kts 195°
2026-05-04 18:52 40.79039 69.31034 22476 ft 406 kts 195°
2026-05-04 18:52 40.76308 69.30048 23239 ft 407 kts 195°
2026-05-04 18:52 40.73595 69.29065 23837 ft 410 kts 196°
2026-05-04 18:52 40.70833 69.28063 24026 ft 415 kts 196°
2026-05-04 18:53 40.68070 69.27062 24023 ft 410 kts 196°
2026-05-04 18:53 40.65317 69.26066 24025 ft 403 kts 196°
2026-05-04 18:53 40.62622 69.25092 24021 ft 401 kts 196°
2026-05-04 18:53 40.59925 69.24117 24023 ft 403 kts 196°
2026-05-04 18:54 40.57206 69.23135 24021 ft 405 kts 196°
2026-05-04 18:54 40.54496 69.22159 24013 ft 406 kts 196°
2026-05-04 18:54 40.51775 69.21178 24015 ft 406 kts 196°
2026-05-04 18:54 40.49075 69.20205 24010 ft 405 kts 197°
2026-05-04 18:55 40.46340 69.19220 24010 ft 404 kts 197°
2026-05-04 18:55 40.40908 69.17268 24013 ft 404 kts 197°
2026-05-04 18:55 40.38216 69.16302 24010 ft 405 kts 197°
2026-05-04 18:56 40.35500 69.15329 24008 ft 406 kts 197°
2026-05-04 18:56 40.32776 69.14353 24009 ft 407 kts 197°
2026-05-04 18:56 40.30050 69.13379 24013 ft 407 kts 197°
2026-05-04 18:56 40.27302 69.12399 24015 ft 406 kts 197°
2026-05-04 18:57 40.24588 69.11432 24018 ft 407 kts 197°
2026-05-04 18:57 40.21834 69.10514 24017 ft 407 kts 194°
2026-05-04 18:57 40.19075 69.09842 24027 ft 407 kts 190°
2026-05-04 18:57 40.16257 69.09326 24032 ft 407 kts 188°
2026-05-04 18:58 40.13448 69.08881 24036 ft 408 kts 188°
2026-05-04 18:58 40.10650 69.08456 24041 ft 407 kts 188°
2026-05-04 18:58 40.07806 69.08021 24046 ft 408 kts 188°
2026-05-04 18:58 40.05010 69.07582 24061 ft 407 kts 188°
2026-05-04 18:59 40.02204 69.07132 24059 ft 406 kts 189°
2026-05-04 18:59 39.99375 69.06671 24064 ft 408 kts 189°
2026-05-04 18:59 39.96575 69.06210 24080 ft 409 kts 189°
2026-05-04 18:59 39.93763 69.05742 24083 ft 410 kts 189°
2026-05-04 19:00 39.90914 69.05267 24100 ft 409 kts 189°
2026-05-04 19:00 39.88108 69.04799 24109 ft 409 kts 189°
2026-05-04 19:00 39.85292 69.04330 24123 ft 408 kts 189°
2026-05-04 19:00 39.82457 69.03857 24156 ft 408 kts 189°
2026-05-04 19:01 39.79637 69.03383 24141 ft 408 kts 189°
2026-05-04 19:01 39.76835 69.02914 24160 ft 409 kts 189°
2026-05-04 19:01 39.73987 69.02442 24180 ft 409 kts 189°
2026-05-04 19:01 39.71169 69.01975 24210 ft 409 kts 189°
2026-05-04 19:02 39.68356 69.01509 24222 ft 410 kts 189°
2026-05-04 19:02 39.65540 69.01028 24264 ft 410 kts 190°
2026-05-04 19:02 39.62707 69.00448 24320 ft 409 kts 193°
2026-05-04 19:02 39.59927 68.99728 24313 ft 410 kts 192°
2026-05-04 19:03 39.57082 68.99181 24244 ft 415 kts 188°
2026-05-04 19:03 39.54219 68.98824 24270 ft 416 kts 187°
2026-05-04 19:03 39.51346 68.98505 24230 ft 418 kts 188°
2026-05-04 19:03 39.48457 68.98026 24231 ft 418 kts 191°
2026-05-04 19:04 39.45610 68.97345 24322 ft 416 kts 194°
2026-05-04 19:04 39.42779 68.96509 24448 ft 413 kts 197°
2026-05-04 19:04 39.40028 68.95537 24476 ft 413 kts 199°
2026-05-04 19:04 39.37246 68.94447 24383 ft 417 kts 197°
2026-05-04 19:05 39.34356 68.93906 24098 ft 429 kts 183°
2026-05-04 19:05 39.31387 68.93836 24311 ft 422 kts 185°
2026-05-04 19:05 39.28512 68.93426 24699 ft 411 kts 191°
2026-05-04 19:05 39.25721 68.92824 24793 ft 410 kts 193°
2026-05-04 19:06 39.22867 68.92039 24536 ft 418 kts 195°
2026-05-04 19:06 39.19996 68.91329 24256 ft 428 kts 191°
2026-05-04 19:06 39.17052 68.90826 23407 ft 436 kts 189°
2026-05-04 19:06 39.13998 68.90375 21740 ft 452 kts 188°
2026-05-04 19:07 39.10879 68.89906 20608 ft 449 kts 188°
2026-05-04 19:07 39.07802 68.89471 19573 ft 444 kts 187°
2026-05-04 19:07 39.04785 68.89056 18403 ft 442 kts 187°
2026-05-04 19:07 39.01765 68.88582 17404 ft 433 kts 189°
2026-05-04 19:08 38.98820 68.87959 16295 ft 427 kts 191°
2026-05-04 19:08 38.95934 68.87279 15157 ft 422 kts 190°
2026-05-04 19:08 38.93122 68.86644 14415 ft 407 kts 191°
2026-05-04 19:08 38.90349 68.85843 12905 ft 412 kts 193°
2026-05-04 19:09 38.87576 68.84974 11515 ft 412 kts 193°
2026-05-04 19:09 38.84827 68.84206 10718 ft 398 kts 191°
2026-05-04 19:09 38.82167 68.83589 10307 ft 374 kts 187°
2026-05-04 19:09 38.79659 68.83108 9920 ft 358 kts 191°
2026-05-04 19:10 38.77264 68.82301 9148 ft 352 kts 197°
2026-05-04 19:10 38.75018 68.81316 8743 ft 336 kts 199°
2026-05-04 19:10 38.72851 68.80296 8026 ft 332 kts 199°
2026-05-04 19:10 38.70670 68.79665 7868 ft 314 kts 185°
2026-05-04 19:11 38.68512 68.79418 7641 ft 304 kts 184°
2026-05-04 19:11 38.66436 68.79239 7379 ft 297 kts 182°
2026-05-04 19:11 38.64389 68.79081 6987 ft 296 kts 182°
2026-05-04 19:11 38.62355 68.78949 6749 ft 288 kts 182°
2026-05-04 19:12 38.60387 68.78812 6663 ft 276 kts 183°
2026-05-04 19:12 38.56553 68.78406 5893 ft 275 kts 185°
2026-05-04 19:12 38.54705 68.78059 5768 ft 264 kts 192°
2026-05-04 19:13 38.53057 68.77166 5645 ft 254 kts 219°
2026-05-04 19:13 38.51921 68.75458 5343 ft 253 kts 243°
2026-05-04 19:13 38.51418 68.73400 5328 ft 235 kts 264°
2026-05-04 19:13 38.51444 68.71345 5082 ft 231 kts 276°
2026-05-04 19:14 38.51572 68.69341 4943 ft 225 kts 275°
2026-05-04 19:14 38.51774 68.67371 4698 ft 218 kts 288°
2026-05-04 19:14 38.52506 68.65860 4558 ft 194 kts 323°
2026-05-04 19:14 38.53711 68.65243 4229 ft 183 kts
2026-05-04 19:15 38.54773 68.65910 3981 ft 172 kts 53°
2026-05-04 19:15 38.55099 68.67271 3824 ft 158 kts 98°
2026-05-04 19:15 38.54768 68.68567 3639 ft 149 kts 107°
2026-05-04 19:15 38.54510 68.69822 3469 ft 146 kts 98°
2026-05-04 19:16 38.54415 68.71102 3364 ft 144 kts 91°
2026-05-04 19:16 38.54406 68.72382 3372 ft 142 kts 89°
2026-05-04 19:16 38.54374 68.73644 3400 ft 144 kts 90°
2026-05-04 19:16 38.54370 68.74917 3436 ft 147 kts 87°
2026-05-04 19:17 38.54366 68.76239 3289 ft 148 kts 89°
2026-05-04 19:17 38.54368 68.77541 3130 ft 146 kts 87°
2026-05-04 19:17 38.54375 68.78835 2905 ft 146 kts 90°
2026-05-04 19:17 38.54379 68.80126 2710 ft 144 kts 89°
2026-05-04 19:18 38.54371 68.81368 2592 ft 129 kts 89°
2026-05-04 19:18 38.54374 68.82317 2592 ft 82 kts 89°
2026-05-04 19:18 38.54369 68.82873 2592 ft 41 kts 90°
2026-05-04 19:18 38.54367 68.83157 2592 ft 20 kts 91°
2026-05-04 19:19 38.54371 68.83258 2592 ft 6 kts 61°
2026-05-04 19:19 38.54408 68.83288 2592 ft 6 kts 12°
2026-05-04 19:19 38.54448 68.83291 2592 ft 5 kts
2026-05-04 19:19 38.54483 68.83291 2592 ft 4 kts
2026-05-04 19:20 38.54513 68.83292 2592 ft 4 kts
2026-05-04 19:20 38.54541 68.83292 2592 ft 3 kts
2026-05-04 19:20 38.54568 68.83292 2592 ft 3 kts
2026-05-04 19:20 38.54595 68.83292 2592 ft 3 kts
2026-05-04 19:21 38.54621 68.83292 2592 ft 3 kts
2026-05-04 19:21 38.54646 68.83292 2592 ft 3 kts 351°
2026-05-04 19:21 38.54675 68.83254 2592 ft 9 kts 291°
2026-05-04 19:21 38.54681 68.83177 2592 ft 8 kts 273°
2026-05-04 19:22 38.54683 68.83106 2592 ft 7 kts 272°
2026-05-04 19:22 38.54684 68.83041 2592 ft 6 kts 271°
2026-05-04 19:22 38.54685 68.82983 2592 ft 6 kts 270°
2026-05-04 19:22 38.54685 68.82931 2592 ft 5 kts 270°
2026-05-04 19:23 38.54686 68.82896 2592 ft 4 kts 271°
2026-05-04 19:23 38.54688 68.82828 2592 ft 9 kts 267°
2026-05-04 19:23 38.54681 68.82733 2592 ft 9 kts 268°
2026-05-04 19:23 38.54680 68.82664 2592 ft 6 kts 269°